Change the Weather History Date:

Friday, February 17, 2012

  Actual Average Record
Temperature  
Mean Temperature 44 °F -  
Max Temperature 48 °F 48 °F 62 °F (2007)
Min Temperature 39 °F 30 °F 16 °F (1993)
Degree Days  
Heating Degree Days 22    
Moisture  
Dew Point 43 °F    
Average Humidity 99    
Maximum Humidity 100    
Minimum Humidity 87    
Precipitation  
Precipitation 0.47 in - - ()
Sea Level Pressure  
Sea Level Pressure 30.11 in    
Wind  
Wind Speed 3 mph (South)    
Max Wind Speed 26 mph    
Max Gust Speed 32 mph    
Visibility 5 miles    
Events Fog , Rain    
Averages and records for this station are not official NWS values.
T = Trace of Precipitation, MM = Missing Value Source: NWS Daily Summary

Daily Weather History Graph

Daily Weather History Graph

Search for Another Location

Airport or City:

Trip Planner

Search our weather history database for the weather conditions in past years. The results will help you decide how hot, cold, wet, or windy it might be!

Date:

Astronomy

Feb. 17, 2012 Rise Set
Actual Time 7:11 AM PST 5:36 PM PST
Civil Twilight 6:40 AM PST 6:07 PM PST
Nautical Twilight 6:05 AM PST 6:43 PM PST
Astronomical Twilight 5:29 AM PST 7:18 PM PST
Moon 4:20 AM PST (2/17) 1:23 PM PST (2/17)
Length of Visible Light 11h 27m
Length of Day
10h 24m
Waning Crescent, 18% of the Moon is Illuminated
Feb 17
Waning Crescent
Feb 21
New
Feb 29
First Quarter
Mar 8
Full
Mar 14
Last Quarter

Hourly Weather History & Observations

Time (PST) Temp. Windchill Dew Point Humidity Pressure Visibility Wind Dir Wind Speed Gust Speed Precip Events Conditions
12:42 AM 42.8 °F 40.1 °F 42.8 °F 100% 30.27 in 9.0 mi East 4.6 mph - N/A   Overcast
12:49 AM 42.8 °F - 42.8 °F 100% 30.27 in 8.0 mi Calm Calm - N/A   Overcast
12:52 AM 42.8 °F - 42.8 °F 100% 30.27 in 10.0 mi Calm Calm - N/A   Overcast
12:55 AM 43.2 °F - 43.0 °F 99% 30.27 in 10.0 mi Calm Calm - 0.00 in   Overcast
1:08 AM 42.8 °F - 42.8 °F 100% 30.27 in 10.0 mi Calm Calm - N/A   Overcast
1:55 AM 41.7 °F - 41.4 °F 99% 30.25 in 4.0 mi Calm Calm - N/A   Partly Cloudy
2:11 AM 41.0 °F - 41.0 °F 100% 30.25 in 2.5 mi Calm Calm - N/A   Clear
2:12 AM 41.0 °F - 41.0 °F 100% 30.25 in 2.0 mi Calm Calm - N/A   Clear
2:13 AM 41.0 °F - 41.0 °F 100% 30.25 in 1.8 mi Calm Calm - N/A   Clear
2:14 AM 41.0 °F - 41.0 °F 100% 30.25 in 1.5 mi Calm Calm - N/A   Clear
2:17 AM 41.0 °F - 41.0 °F 100% 30.25 in 1.0 mi Calm Calm - N/A   Clear
2:18 AM 41.0 °F - 41.0 °F 100% 30.25 in 1.0 mi Calm Calm - N/A   Clear
2:19 AM 41.0 °F - 41.0 °F 100% 30.25 in 1.0 mi Calm Calm - N/A   Clear
2:20 AM 41.0 °F - 41.0 °F 100% 30.25 in 1.2 mi Calm Calm - N/A   Clear
2:21 AM 41.0 °F - 41.0 °F 100% 30.25 in 1.2 mi Calm Calm - N/A   Clear
2:24 AM 41.0 °F - 41.0 °F 100% 30.25 in 1.8 mi Calm Calm - N/A   Clear
2:25 AM 41.0 °F - 41.0 °F 100% 30.24 in 2.0 mi Calm Calm - N/A   Clear
2:26 AM 41.0 °F - 41.0 °F 100% 30.24 in 2.5 mi Calm Calm - N/A   Clear
2:27 AM 42.8 °F - 41.0 °F 93% 30.24 in 3.0 mi Calm Calm - N/A   Clear
2:44 AM 41.0 °F - 41.0 °F 100% 30.24 in 2.5 mi Calm Calm - N/A   Partly Cloudy
2:46 AM 41.0 °F - 41.0 °F 100% 30.24 in 2.0 mi Calm Calm - N/A   Partly Cloudy
2:47 AM 41.0 °F - 41.0 °F 100% 30.24 in 1.8 mi Calm Calm - N/A   Partly Cloudy
2:48 AM 41.0 °F - 41.0 °F 100% 30.24 in 1.5 mi Calm Calm - N/A   Partly Cloudy
2:49 AM 41.0 °F - 41.0 °F 100% 30.24 in 1.2 mi Calm Calm - N/A   Partly Cloudy
2:50 AM 41.0 °F - 41.0 °F 100% 30.24 in 1.0 mi Calm Calm - N/A   Partly Cloudy
2:51 AM 41.0 °F - 41.0 °F 100% 30.23 in 1.0 mi Calm Calm - N/A   Partly Cloudy
2:52 AM 41.0 °F - 41.0 °F 100% 30.23 in 0.8 mi Calm Calm - N/A   Partly Cloudy
2:55 AM 41.2 °F - 40.8 °F 99% 30.23 in 0.8 mi Calm Calm - N/A   Partly Cloudy
3:02 AM 41.0 °F - 41.0 °F 100% 30.23 in 1.0 mi Calm Calm - N/A   Partly Cloudy
3:05 AM 41.0 °F - 41.0 °F 100% 30.23 in 1.2 mi Calm Calm - N/A   Clear
3:06 AM 41.0 °F - 41.0 °F 100% 30.23 in 1.2 mi Calm Calm - N/A   Partly Cloudy
3:08 AM 41.0 °F - 41.0 °F 100% 30.23 in 1.2 mi Calm Calm - N/A   Partly Cloudy
3:16 AM 41.0 °F - 41.0 °F 100% 30.22 in 1.2 mi Calm Calm - N/A   Mostly Cloudy
3:19 AM 41.0 °F - 41.0 °F 100% 30.22 in 1.0 mi Calm Calm - N/A   Mist
3:20 AM 41.0 °F - 41.0 °F 100% 30.22 in 0.8 mi Calm Calm - N/A   Mist
3:22 AM 41.0 °F - 41.0 °F 100% 30.22 in 0.8 mi Calm Calm - N/A   Mist
3:23 AM 41.0 °F - 39.2 °F 93% 30.22 in 0.5 mi Calm Calm - N/A Fog Fog
3:34 AM 39.2 °F - 39.2 °F 100% 30.22 in 0.8 mi Calm Calm - N/A   Mist
3:48 AM 41.0 °F - 41.0 °F 100% 30.22 in 1.0 mi Calm Calm - N/A   Mist
3:49 AM 41.0 °F - 41.0 °F 100% 30.22 in 1.0 mi Calm Calm - N/A   Mist
3:51 AM 41.0 °F - 41.0 °F 100% 30.22 in 1.2 mi Calm Calm - N/A   Scattered Clouds
3:53 AM 41.0 °F - 41.0 °F 100% 30.22 in 1.2 mi Calm Calm - N/A   Mostly Cloudy
3:55 AM 41.2 °F - 41.0 °F 99% 30.22 in 1.5 mi Calm Calm - N/A   Mostly Cloudy
3:56 AM 41.0 °F - 41.0 °F 100% 30.22 in 1.8 mi Calm Calm - N/A   Mostly Cloudy
3:57 AM 41.0 °F 39.0 °F 41.0 °F 100% 30.22 in 2.0 mi West 3.5 mph - N/A   Mostly Cloudy
3:59 AM 41.0 °F 39.0 °F 41.0 °F 100% 30.22 in 2.5 mi West 3.5 mph - N/A   Mostly Cloudy
4:01 AM 41.0 °F 39.0 °F 41.0 °F 100% 30.22 in 3.0 mi West 3.5 mph - N/A   Mostly Cloudy
4:33 AM 42.8 °F 41.1 °F 41.0 °F 93% 30.21 in 2.5 mi SW 3.5 mph - N/A   Overcast
4:36 AM 42.8 °F 41.1 °F 41.0 °F 93% 30.21 in 2.0 mi WSW 3.5 mph - N/A   Overcast
4:37 AM 42.8 °F 41.1 °F 41.0 °F 93% 30.21 in 2.0 mi WSW 3.5 mph - N/A   Overcast
4:42 AM 42.8 °F 40.1 °F 42.8 °F 100% 30.22 in 2.0 mi SW 4.6 mph - N/A   Overcast
4:46 AM 42.8 °F 40.1 °F 42.8 °F 100% 30.22 in 1.8 mi WSW 4.6 mph - N/A   Overcast
4:49 AM 42.8 °F 40.1 °F 42.8 °F 100% 30.22 in 1.5 mi WSW 4.6 mph - N/A   Overcast
4:54 AM 42.8 °F - 42.8 °F 100% 30.21 in 1.0 mi Calm Calm - N/A   Mist
4:55 AM 42.3 °F - 42.1 °F 99% 30.21 in 1.0 mi Calm Calm - N/A   Mist
4:57 AM 42.8 °F - 42.8 °F 100% 30.21 in 0.8 mi Calm Calm - N/A   Mist
4:58 AM 42.8 °F - 42.8 °F 100% 30.21 in 0.8 mi Calm Calm - N/A   Mist
5:03 AM 42.8 °F - 42.8 °F 100% 30.21 in 0.8 mi Calm Calm - N/A   Mist
5:14 AM 42.8 °F - 42.8 °F 100% 30.21 in 0.5 mi Calm Calm - N/A Fog Fog
5:22 AM 42.8 °F 40.1 °F 42.8 °F 100% 30.22 in 0.8 mi West 4.6 mph - N/A   Mist
5:30 AM 42.8 °F 41.1 °F 42.8 °F 100% 30.21 in 1.0 mi West 3.5 mph - N/A   Mist
5:31 AM 42.8 °F 40.1 °F 42.8 °F 100% 30.21 in 1.0 mi West 4.6 mph - N/A   Mist
5:36 AM 42.8 °F 40.1 °F 42.8 °F 100% 30.21 in 1.2 mi WNW 4.6 mph - N/A   Overcast
5:39 AM 42.8 °F - 42.8 °F 100% 30.20 in 1.0 mi Calm Calm - N/A   Mist
5:45 AM 42.8 °F - 42.8 °F 100% 30.20 in 0.8 mi Calm Calm - N/A   Mist
5:52 AM 42.8 °F - 42.8 °F 100% 30.20 in 1.0 mi Calm Calm - N/A   Mist
5:55 AM 42.4 °F - 42.3 °F 99% 30.19 in 1.0 mi Calm Calm - N/A   Mist
6:16 AM 42.8 °F - 42.8 °F 100% 30.19 in 0.8 mi Calm Calm - N/A   Mist
6:27 AM 42.8 °F - 42.8 °F 100% 30.19 in 1.0 mi Calm Calm - N/A   Mist
6:32 AM 42.8 °F - 42.8 °F 100% 30.19 in 0.8 mi Calm Calm - N/A   Mist
6:37 AM 42.8 °F - 42.8 °F 100% 30.19 in 0.5 mi Calm Calm - N/A Fog Fog
6:43 AM 42.8 °F - 42.8 °F 100% 30.19 in 0.5 mi Calm Calm - N/A Fog Fog
6:44 AM 42.8 °F - 42.8 °F 100% 30.19 in 0.2 mi Calm Calm - N/A Fog Fog
6:45 AM 42.8 °F - 42.8 °F 100% 30.19 in 0.2 mi Calm Calm - N/A Fog Fog
6:55 AM 42.1 °F - 41.9 °F 99% 30.19 in 0.2 mi Calm Calm - N/A Fog Fog
7:00 AM 42.8 °F - 41.0 °F 93% 30.19 in 0.2 mi Calm Calm - N/A Fog Fog
7:28 AM 42.8 °F - 42.8 °F 100% 30.18 in 0.2 mi Calm Calm - N/A Fog Fog
7:37 AM 42.8 °F 41.1 °F 42.8 °F 100% 30.18 in 0.2 mi East 3.5 mph - N/A Fog Light Drizzle
7:43 AM 42.8 °F 40.1 °F 42.8 °F 100% 30.18 in 0.2 mi East 4.6 mph - N/A Fog Fog
7:51 AM 42.8 °F 40.1 °F 42.8 °F 100% 30.17 in 0.2 mi East 4.6 mph - N/A Fog Fog
7:52 AM 42.8 °F 39.3 °F 42.8 °F 100% 30.17 in 0.5 mi East 5.8 mph - N/A Fog Fog
7:55 AM 42.3 °F 39.4 °F 42.3 °F 100% 30.17 in 0.5 mi East 4.6 mph - 0.00 in Fog Fog
8:00 AM 42.8 °F 39.3 °F 42.8 °F 100% 30.17 in 0.5 mi East 5.8 mph - N/A Fog Fog
8:03 AM 42.8 °F 40.1 °F 42.8 °F 100% 30.17 in 0.8 mi East 4.6 mph - N/A   Mist
8:05 AM 42.8 °F 41.1 °F 42.8 °F 100% 30.17 in 1.0 mi East 3.5 mph - N/A   Overcast
8:07 AM 42.8 °F 40.1 °F 42.8 °F 100% 30.17 in 1.5 mi East 4.6 mph - N/A   Overcast
8:08 AM 42.8 °F 41.1 °F 42.8 °F 100% 30.17 in 2.0 mi East 3.5 mph - N/A   Overcast
8:09 AM 42.8 °F 41.1 °F 42.8 °F 100% 30.17 in 3.0 mi East 3.5 mph - N/A   Overcast
8:14 AM 42.8 °F 40.1 °F 42.8 °F 100% 30.17 in 5.0 mi East 4.6 mph - N/A   Overcast
8:29 AM 42.8 °F 41.1 °F 42.8 °F 100% 30.17 in 8.0 mi ESE 3.5 mph - N/A   Overcast
8:32 AM 42.8 °F - 42.8 °F 100% 30.17 in 7.0 mi Calm Calm - N/A   Overcast
8:33 AM 42.8 °F - 42.8 °F 100% 30.17 in 7.0 mi Calm Calm - N/A   Overcast
8:43 AM 42.8 °F - 42.8 °F 100% 30.16 in 7.0 mi Calm Calm - N/A   Overcast
8:46 AM 42.8 °F - 42.8 °F 100% 30.16 in 8.0 mi Calm Calm - N/A   Overcast
8:48 AM 42.8 °F - 42.8 °F 100% 30.16 in 8.0 mi Calm Calm - N/A   Overcast
8:52 AM 42.8 °F - 42.8 °F 100% 30.15 in 7.0 mi Calm Calm - N/A   Overcast
8:55 AM 43.2 °F - 43.2 °F 100% 30.15 in 7.0 mi Calm Calm - N/A   Overcast
8:59 AM 42.8 °F - 42.8 °F 100% 30.15 in 8.0 mi Calm Calm - N/A   Overcast
9:04 AM 42.8 °F 41.1 °F 42.8 °F 100% 30.15 in 10.0 mi East 3.5 mph - N/A   Overcast
9:07 AM 42.8 °F 41.1 °F 42.8 °F 100% 30.14 in 10.0 mi East 3.5 mph - N/A   Overcast
9:20 AM 42.8 °F - 42.8 °F 100% 30.14 in 10.0 mi Calm Calm - N/A   Overcast
9:25 AM 42.8 °F 41.1 °F 42.8 °F 100% 30.14 in 10.0 mi SE 3.5 mph - N/A   Overcast
9:29 AM 42.8 °F 41.1 °F 42.8 °F 100% 30.14 in 10.0 mi SE 3.5 mph - N/A   Overcast
9:42 AM 42.8 °F - 42.8 °F 100% 30.13 in 10.0 mi Calm Calm - N/A   Overcast
9:43 AM 42.8 °F - 42.8 °F 100% 30.13 in 10.0 mi Calm Calm - N/A   Overcast
9:51 AM 42.8 °F - 42.8 °F 100% 30.13 in 10.0 mi Calm Calm - N/A   Overcast
9:55 AM 43.7 °F - 43.7 °F 100% 30.12 in 10.0 mi Calm Calm - N/A   Overcast
10:06 AM 44.6 °F - 44.6 °F 100% 30.12 in 8.0 mi Calm Calm - N/A   Light Drizzle
10:14 AM 44.6 °F - 44.6 °F 100% 30.12 in 10.0 mi Calm Calm - N/A   Light Drizzle
10:15 AM 44.6 °F - 44.6 °F 100% 30.12 in 10.0 mi Calm Calm - N/A   Overcast
10:19 AM 44.6 °F - 44.6 °F 100% 30.12 in 8.0 mi Calm Calm - N/A   Light Drizzle
10:22 AM 44.6 °F - 44.6 °F 100% 30.12 in 7.0 mi Calm Calm - N/A   Light Drizzle
10:23 AM 44.6 °F - 44.6 °F 100% 30.12 in 7.0 mi Calm Calm - N/A   Light Drizzle
10:28 AM 44.6 °F - 44.6 °F 100% 30.12 in 8.0 mi Calm Calm - N/A   Overcast
10:55 AM 44.8 °F - 44.8 °F 100% 30.11 in 10.0 mi Calm Calm - 0.00 in   Overcast
11:34 AM 46.4 °F - 46.4 °F 100% 30.09 in 10.0 mi Calm Calm - N/A   Overcast
11:55 AM 47.5 °F - 46.8 °F 97% 30.07 in 10.0 mi Calm Calm - N/A   Overcast
12:55 PM 48.9 °F - 46.8 °F 92% 30.00 in 10.0 mi Variable 3.5 mph - N/A   Overcast
1:31 PM 48.2 °F - 46.4 °F 93% 29.98 in 10.0 mi SE 3.5 mph - N/A Rain Light Rain
1:44 PM 48.2 °F - 46.4 °F 93% 29.97 in 10.0 mi Calm Calm - N/A   Mostly Cloudy
1:49 PM 48.2 °F - 46.4 °F 93% 29.96 in 10.0 mi Calm Calm - N/A Rain Light Rain
1:55 PM 48.7 °F - 46.8 °F 93% 29.96 in 7.0 mi Calm Calm - 0.01 in Rain Light Rain
2:55 PM 47.8 °F - 47.5 °F 99% 29.94 in 3.0 mi Calm Calm - 0.11 in Rain Rain
2:59 PM 48.2 °F - 48.2 °F 100% 29.93 in 2.5 mi Calm Calm - N/A Rain Rain
3:03 PM 48.2 °F - 48.2 °F 100% 29.93 in 2.0 mi Calm Calm - N/A Rain Rain
3:06 PM 48.2 °F - 48.2 °F 100% 29.93 in 2.5 mi Calm Calm - N/A Rain Rain
3:08 PM 48.2 °F - 48.2 °F 100% 29.93 in 3.0 mi Calm Calm - N/A Rain Light Rain
3:19 PM 48.2 °F - 48.2 °F 100% 29.92 in 9.0 mi Calm Calm - N/A Rain Light Rain
3:22 PM 48.2 °F - 48.2 °F 100% 29.92 in 8.0 mi Calm Calm - N/A Rain Light Rain
3:24 PM 48.2 °F - 48.2 °F 100% 29.92 in 7.0 mi Calm Calm - N/A Rain Light Rain
3:41 PM 48.2 °F - 48.2 °F 100% 29.91 in 5.0 mi SE 4.6 mph - N/A Rain Light Rain
3:55 PM 48.7 °F - 48.4 °F 99% 29.90 in 10.0 mi SSE 6.9 mph - 0.08 in Rain Light Rain
4:10 PM 48.2 °F - 48.2 °F 100% 29.89 in 10.0 mi SSE 6.9 mph - N/A   Overcast
4:12 PM 48.2 °F - 48.2 °F 100% 29.89 in 10.0 mi SSE 8.1 mph - N/A Rain Light Rain
4:14 PM 48.2 °F - 48.2 °F 100% 29.89 in 10.0 mi SSE 8.1 mph - N/A   Overcast
4:25 PM 48.2 °F - 48.2 °F 100% 29.88 in 10.0 mi SSE 6.9 mph - N/A Rain Light Rain
4:49 PM 48.2 °F - 48.2 °F 100% 29.88 in 10.0 mi SSW 10.4 mph - N/A Rain Light Rain
4:55 PM 48.2 °F - 46.4 °F 93% 29.91 in 4.0 mi West 26.5 mph 29.9 mph 0.02 in Rain Light Rain
4:57 PM 46.4 °F 38.5 °F 44.6 °F 93% 29.91 in 2.5 mi West 21.9 mph 32.2 mph N/A Rain Heavy Rain
4:58 PM 46.4 °F 39.0 °F 42.8 °F 87% 29.91 in 2.0 mi West 19.6 mph 32.2 mph N/A Rain Heavy Rain
4:59 PM 46.4 °F 39.2 °F 42.8 °F 87% 29.91 in 1.8 mi WSW 18.4 mph 32.2 mph N/A Rain Heavy Rain
5:00 PM 44.6 °F 37.2 °F 42.8 °F 93% 29.91 in 1.5 mi West 17.3 mph 32.2 mph N/A Rain Heavy Rain
5:04 PM 44.6 °F 36.6 °F 42.8 °F 93% 29.92 in 1.5 mi West 19.6 mph 32.2 mph N/A Rain Rain
5:06 PM 44.6 °F 36.6 °F 42.8 °F 93% 29.92 in 1.8 mi WSW 19.6 mph 32.2 mph N/A Rain Rain
5:07 PM 44.6 °F 36.6 °F 42.8 °F 93% 29.92 in 2.0 mi WSW 19.6 mph - N/A Rain Rain
5:08 PM 44.6 °F 36.6 °F 42.8 °F 93% 29.92 in 2.5 mi WSW 19.6 mph - N/A Rain Rain
5:10 PM 44.6 °F 38.1 °F 42.8 °F 93% 29.92 in 3.0 mi WSW 13.8 mph - N/A Rain Rain
5:55 PM 43.5 °F 37.5 °F 43.0 °F 98% 29.92 in 10.0 mi SSW 11.5 mph - 0.12 in Rain Light Rain
6:41 PM 42.8 °F 37.0 °F 42.8 °F 100% 29.95 in 10.0 mi SSE 10.4 mph - N/A Rain Light Rain
6:55 PM 42.8 °F 35.8 °F 42.4 °F 99% 29.95 in 10.0 mi SSE 13.8 mph - 0.01 in Rain Light Rain
7:11 PM 42.8 °F 36.2 °F 42.8 °F 100% 29.95 in 10.0 mi SSE 12.7 mph - N/A Rain Light Rain
7:19 PM 42.8 °F 36.6 °F 42.8 °F 100% 29.95 in 10.0 mi South 11.5 mph - N/A Rain Light Rain
7:28 PM 42.8 °F 37.5 °F 42.8 °F 100% 29.95 in 10.0 mi South 9.2 mph - N/A   Overcast
7:32 PM 42.8 °F 37.0 °F 42.8 °F 100% 29.95 in 10.0 mi SSE 10.4 mph - N/A Rain Light Rain
7:43 PM 42.8 °F 36.6 °F 42.8 °F 100% 29.96 in 10.0 mi South 11.5 mph - N/A Rain Light Rain
7:55 PM 42.3 °F 39.4 °F 42.1 °F 99% 29.96 in 7.0 mi South 4.6 mph - 0.05 in Rain Light Rain
8:27 PM 42.8 °F 36.6 °F 41.0 °F 93% 29.96 in 10.0 mi South 11.5 mph - N/A   Mostly Cloudy
8:32 PM 42.8 °F 36.2 °F 41.0 °F 93% 29.96 in 10.0 mi SSW 12.7 mph - N/A Rain Light Rain
8:38 PM 42.8 °F 38.0 °F 41.0 °F 93% 29.97 in 8.0 mi SW 8.1 mph - N/A Rain Light Rain
8:41 PM 42.8 °F 38.6 °F 42.8 °F 100% 29.97 in 7.0 mi SW 6.9 mph - N/A Rain Light Rain
8:45 PM 42.8 °F 38.6 °F 42.8 °F 100% 29.97 in 6.0 mi SW 6.9 mph - N/A Rain Light Rain
8:50 PM 42.8 °F 38.6 °F 42.8 °F 100% 29.98 in 6.0 mi SW 6.9 mph - N/A Rain Rain
8:53 PM 42.8 °F 38.0 °F 42.8 °F 100% 29.97 in 5.0 mi SSW 8.1 mph - N/A Rain Rain
8:54 PM 42.8 °F 37.0 °F 42.8 °F 100% 29.97 in 5.0 mi South 10.4 mph 17.3 mph N/A Rain Rain
8:55 PM 42.4 °F 36.1 °F 42.1 °F 99% 29.97 in 5.0 mi South 11.5 mph 17.3 mph 0.04 in Rain Rain
8:58 PM 42.8 °F 36.6 °F 42.8 °F 100% 29.97 in 6.0 mi South 11.5 mph 17.3 mph N/A Rain Light Rain
9:00 PM 42.8 °F 36.6 °F 42.8 °F 100% 29.97 in 6.0 mi South 11.5 mph 17.3 mph N/A Rain Light Rain
9:04 PM 42.8 °F 37.0 °F 42.8 °F 100% 29.97 in 9.0 mi South 10.4 mph - N/A Rain Light Rain
9:05 PM 42.8 °F 36.6 °F 42.8 °F 100% 29.97 in 9.0 mi South 11.5 mph - N/A Rain Light Rain
9:07 PM 42.8 °F 36.6 °F 41.0 °F 93% 29.97 in 9.0 mi South 11.5 mph - N/A Rain Light Rain
9:18 PM 41.0 °F 33.9 °F 41.0 °F 100% 29.97 in 10.0 mi South 12.7 mph - N/A Rain Light Rain
9:19 PM 41.0 °F 34.3 °F 41.0 °F 100% 29.97 in 10.0 mi South 11.5 mph - N/A Rain Light Rain
9:21 PM 41.0 °F 34.3 °F 41.0 °F 100% 29.97 in 10.0 mi South 11.5 mph - N/A Rain Light Rain
9:36 PM 41.0 °F 33.9 °F 41.0 °F 100% 29.97 in 10.0 mi South 12.7 mph - N/A Rain Light Rain
9:41 PM 42.8 °F 35.4 °F 41.0 °F 93% 29.97 in 10.0 mi SSW 15.0 mph - N/A Rain Light Rain
9:55 PM 41.7 °F 34.1 °F 39.7 °F 93% 29.97 in 10.0 mi South 15.0 mph 23.0 mph 0.03 in Rain Light Rain
11:55 PM 40.3 °F 31.6 °F 38.8 °F 95% 29.97 in 10.0 mi South 17.3 mph - N/A   Mostly Cloudy